Hourly Data Report for January 19, 2020

SATURNA ISLAND CS
BRITISH COLUMBIA
Current Station Operator: ECCC - MSC

48°47'02.067" N
123°02'41.082" W
24.40 m
1017101
71473
WEZ

Download Data

Hourly Data (January 2020)
Hourly Data Report for January 19, 2020
TIME
LST
Temp Definition
°C
Dew Point Definition
°C
Rel Hum Definition
%
Precip. Amount Definition
mm

Wind Dir Definition
10's deg

Wind Spd Definition
km/h
Visibility Definition
km
Stn Press Definition
kPa
Hmdx Definition


Wind Chill Definition


Weather Definition


00:00 9.0 5.9 81 0.0 17 23   102.01     LegendNANA
01:00 9.2 5.6 79 0.0 16 16   102.00     LegendNANA
02:00 9.1 5.6 79 0.0 17 16   101.99     LegendNANA
03:00 9.2 5.5 78 0.0 16 20   101.99     LegendNANA
04:00 9.4 5.6 77 0.0 15 14   101.95     LegendNANA
05:00 8.0 4.5 78 0.0 8 16   101.93     LegendNANA
06:00 7.7 5.1 83 0.0 6 15   101.93     LegendNANA
07:00 7.0 4.6 84 0.0 7 23   101.91     LegendNANA
08:00 6.2 4.3 88 0.0 7 26   101.92     LegendNANA
09:00 6.8 4.9 87 0.0 7 21   101.93     LegendNANA
10:00 7.1 4.9 86 0.0 7 21   101.92     LegendNANA
11:00 6.9 4.5 84 0.0 6 25   101.86     LegendNANA
12:00 6.7 4.6 86 0.2 6 20   101.84     LegendNANA
13:00 7.0 4.7 85 0.0 6 17   101.74     LegendNANA
14:00 7.6 5.0 83 0.0 8 20   101.65     LegendNANA
15:00 7.9 5.5 85 0.0 7 12   101.62     LegendNANA
16:00 7.7 5.3 85 0.0 6 19   101.55     LegendNANA
17:00 7.2 5.0 86 0.0 6 22   101.46     LegendNANA
18:00 7.2 5.0 86 0.0 6 23   101.41     LegendNANA
19:00 7.3 5.1 86 0.0 5 18   101.29     LegendNANA
20:00 6.9 4.8 86 0.0 5 4   101.24     LegendNANA
21:00 7.1 5.0 87 0.0 14 4   101.17     LegendNANA
22:00 7.3 5.3 87 0.0 3 10   101.10     LegendNANA
23:00 7.8 6.1 89 0.0 8 17   101.08     LegendNANA

Notes on Data Quality.

Legend

  • E = Estimated
  • M = Missing
  • NA = Not Available*
  • [empty] = Indicates an unobserved value
Date modified: